TIME,DELAY(SENSOR),PRES,T(CTD),SAL,OXYGEN,RAWTEMP,T(OPTODE),TCPHASE,TURBIDITY,TURBIDITY_GAIN,FLUOR,BETA,CDOM,CHECK
1342509099,8890,999.5000000000000000,6.0117001533508300,35.0634994506835940,236.2557067871093800,640.2996215820312000,6.0026907920837400,36.5814285278320300,15,3,50,86,71,15410
1342509200,8890,989.1300048828125000,6.1128001213073730,35.0685997009277340,234.0039062500000000,637.3170166015625000,6.1007671356201170,36.6419105529785160,16,3,50,86,72,15410
1342509313,8891,977.9000244140625000,6.2470002174377440,35.0773010253906250,230.6109924316406200,633.4652709960938000,6.2272830009460450,36.7487907409668000,15,3,50,87,71,15422
1342509426,8892,966.9600219726562000,6.2741999626159670,35.0752983093261700,228.9346008300781200,632.1937866210938000,6.2690119743347170,36.8148002624511700,15,3,50,86,70,15422
1342509539,8890,956.4600219726562000,6.4581999778747560,35.0886001586914060,224.5482025146484400,626.9791259765625000,6.4399762153625490,36.9554100036621100,16,3,50,86,71,15423
1342509666,8892,944.5200195312500000,6.5545001029968260,35.0922012329101560,221.0384979248047000,623.9138183593750000,6.5403399467468260,37.0920600891113300,16,3,50,86,71,15424
1342509793,8890,932.7199707031250000,6.6139998435974120,35.0908012390136700,218.8515014648437500,622.1646118164062000,6.5975670814514160,37.1818389892578100,16,3,50,86,70,15426
1342509908,8891,922.1199951171875000,6.7477002143859860,35.1004981994628900,215.5731048583984400,618.2614135742188000,6.7251529693603520,37.2954902648925800,16,3,50,87,70,15426
1342510035,8890,910.6300048828125000,6.8766999244689940,35.1078987121582000,212.7828063964843800,614.1032714843750000,6.8608989715576170,37.3785018920898440,16,3,50,84,71,15424
1342510162,8891,899.3499755859375000,6.9535999298095700,35.1054992675781250,210.1578063964843800,611.6511230468750000,6.9408740997314450,37.4862899780273440,16,3,50,86,70,15422
1342510289,8891,888.1799926757812000,7.0843000411987305,35.1133003234863300,207.6873931884765600,607.7913208007812000,7.0666289329528810,37.5614509582519500,16,3,50,86,70,15424
1342510416,8890,877.0300292968750000,7.2328000068664550,35.1171989440918000,203.8822021484375000,603.1162719726562000,7.2187480926513670,37.7035903930664060,16,3,50,86,72,15423
1342510543,8891,866.4199829101562000,7.3586001396179200,35.1197013854980500,200.1103973388672000,599.2009887695312000,7.3459801673889160,37.8621101379394500,15,3,50,87,70,15422
1342510682,8889,855.4400024414062000,7.6276998519897460,35.1240997314453100,194.5924987792968800,590.9157104492188000,7.6147308349609375,38.0562515258789060,16,3,50,87,72,15420
1342510827,8890,844.5200195312500000,7.7864999771118160,35.1344985961914060,189.8999023437500000,585.4863281250000000,7.7904911041259770,38.2588882446289060,16,3,50,88,70,15420
1342510954,8890,833.1099853515625000,8.1023998260498050,35.1473007202148440,183.4423980712890600,575.8803100585938000,8.1007785797119140,38.5126609802246100,16,3,51,89,70,15418
1342511069,8891,822.4600219726562000,8.2486000061035160,35.1572990417480500,179.6501007080078000,571.6480712890625000,8.2372169494628900,38.6945304870605500,16,3,50,86,70,15416
1342511196,8890,810.6799926757812000,8.4153003692626950,35.1641998291015600,176.6575927734375000,566.0551757812500000,8.4172725677490230,38.8028297424316400,16,3,50,88,70,15416
1342511311,8891,799.6900024414062000,8.7603998184204100,35.1878013610839840,172.9172058105468800,554.3256835937500000,8.7939987182617190,38.8584213256835940,16,3,50,88,70,15418
1342511424,8890,788.8599853515625000,9.0551004409790040,35.2146987915039060,169.2440948486328000,546.5277709960938000,9.0437946319580080,38.9872093200683600,16,3,50,86,70,15418
1342511539,8891,777.5399780273438000,9.1638002395629880,35.2238998413085940,168.1723022460937500,542.8325805664062000,9.1619825363159180,39.0007400512695300,16,3,50,86,70,15418
1342511654,8891,766.6199951171875000,9.3056001663208000,35.2352981567382800,166.1537933349609400,538.6055297851562000,9.2970542907714840,39.0755500793457000,16,3,50,88,70,15417
1342511781,8891,754.5100097656250000,9.4347000122070310,35.2444992065429700,164.7048034667968800,534.5444946289062000,9.4266757965087890,39.1139106750488300,16,3,51,88,70,15418
1342511896,8891,743.5700073242188000,9.8257999420166020,35.2742996215820300,161.3948974609375000,522.5861206054688000,9.8076114654541020,39.1586494445800800,16,3,50,84,70,15419
1342512023,8891,731.4500122070312000,10.2018003463745120,35.3152999877929700,159.6687011718750000,509.6188964843750000,10.2194404602050780,39.0689811706543000,16,3,50,86,70,15420
1342512138,8891,720.4600219726562000,10.4130001068115230,35.3422012329101560,160.4942016601562500,503.7125854492187500,10.4065999984741210,38.9065704345703100,16,3,50,86,70,15420
1342512265,8891,708.5200195312500000,10.7056999206542970,35.3744010925293000,160.6490020751953000,494.0819091796875000,10.7112398147583000,38.7318801879882800,16,3,50,85,69,15420
1342512392,8892,696.6599731445312000,10.9553003311157230,35.3983001708984400,160.6423034667968800,485.7862854003906000,10.9731302261352540,38.5938911437988300,12,3,50,86,70,15418
1342512507,8892,686.0300292968750000,11.1168003082275390,35.4206008911132800,160.3643035888672000,480.9505920410156000,11.1255798339843750,38.5358390808105500,16,3,50,86,68,15418
1342512634,8892,674.4899902343750000,11.4505996704101560,35.4622993469238300,161.7711944580078000,470.4509887695312500,11.4560499191284180,38.2537117004394500,16,3,50,87,68,15420
1342512761,8892,663.2199707031250000,11.7225999832153320,35.5000000000000000,162.1616973876953000,461.7976074218750000,11.7278900146484380,38.0821189880371100,16,3,50,84,68,15419
1342512888,8891,652.5700073242188000,12.0832004547119140,35.5448989868164060,164.6891021728515600,450.3998107910156000,12.0852403640747070,37.7049217224121100,16,3,50,86,69,15419
1342513045,8892,639.7800292968750000,12.4816999435424800,35.6044998168945300,168.4886932373047000,437.5054016113281000,12.4885997772216800,37.2149391174316400,16,3,50,86,68,15420
1342513159,8890,628.6500244140625000,12.8493003845214840,35.6584014892578100,174.4976043701172000,425.6513061523437500,12.8585996627807620,36.5928611755371100,16,3,50,84,68,15421
1342513274,8892,617.7700195312500000,13.1484003067016600,35.7041015625000000,179.7185974121093800,415.5993957519531000,13.1717796325683600,36.0715789794921900,16,3,50,84,67,15420
1342513387,8889,607.5499877929688000,13.4741001129150390,35.7529983520507800,184.1107025146484400,405.7749938964844000,13.4773998260498050,35.6212310791015600,16,3,50,84,67,15419
1342513514,8891,595.9000244140625000,13.6106004714965820,35.7783012390136700,188.3038940429687500,400.5488891601562500,13.6397800445556640,35.2652702331543000,16,3,50,86,67,15418
1342513629,8892,585.0000000000000000,13.8729000091552730,35.8171005249023440,189.9104003906250000,392.5187072753906000,13.8890495300292970,35.0376396179199200,16,3,50,83,66,15420
1342513744,8892,573.8499755859375000,14.1104001998901370,35.8544998168945300,191.8742980957031200,384.9341125488281000,14.1242399215698240,34.7957916259765600,16,3,50,85,66,15418
1342513859,8891,562.4500122070312000,14.4140996932983400,35.9026985168457000,192.4582977294922000,375.3440856933594000,14.4212703704833980,34.6116981506347660,16,3,50,85,64,15418
1342513993,8890,549.4500122070312000,14.6758003234863280,35.9459991455078100,194.3081970214843800,367.2406921386719000,14.6719799041748050,34.3729896545410160,16,3,50,87,65,15418
1342514125,8891,538.7800292968750000,14.7995004653930660,35.9662017822265600,194.6896972656250000,363.0408935546875000,14.8018198013305660,34.2862510681152340,15,3,50,86,64,15415
1342514277,8892,525.8900146484375000,15.0332002639770500,36.0057983398437500,195.6985015869140600,354.9859924316406000,15.0506696701049800,34.1022415161132800,16,3,50,84,66,15417
1342514392,8891,514.5499877929688000,15.2232999801635740,36.0401000976562500,197.3735046386718800,349.1662902832031000,15.2303304672241210,33.9132499694824200,16,3,49,86,64,15418
1342514507,8892,503.3800048828125000,15.4062995910644530,36.0735015869140600,198.8822021484375000,342.9436035156250000,15.4223098754882810,33.7295913696289060,15,3,50,85,64,15416
1342514622,8890,492.3800048828125000,15.6503000259399410,36.1142005920410160,199.6746063232422000,335.3757934570312500,15.6556301116943360,33.5699195861816400,16,3,50,85,66,15415
1342514749,8892,480.6499938964844000,15.8191003799438480,36.1472015380859400,199.7512054443359400,329.8656921386719000,15.8254098892211910,33.4841613769531250,16,3,50,86,64,15416
1342514876,8891,469.6600036621094000,16.0277996063232420,36.1860008239746100,202.3045959472656200,323.1393127441406000,16.0325603485107420,33.2341995239257800,16,3,50,84,64,15418
1342515015,8891,458.5000000000000000,16.1870994567871100,36.2179985046386700,204.5045013427734400,317.4996948242187500,16.2061500549316400,33.0245018005371100,16,3,50,86,64,15416
1342515170,8890,445.6000061035156000,16.4748001098632800,36.2705993652343750,207.9219055175781200,308.7954101562500000,16.4739208221435550,32.7028884887695300,16,3,50,85,63,15414
1342515285,8892,434.7200012207031000,16.6046009063720700,36.2966003417968750,210.5289001464843800,304.1907958984375000,16.6155109405517580,32.4903984069824200,16,3,50,86,62,15412
1342515400,8892,423.8599853515625000,16.8372001647949220,36.3404006958007800,210.9461975097656200,296.2981872558594000,16.8581008911132800,32.3544197082519500,13,3,50,88,62,15411
1342515515,8891,412.5899963378906000,17.0337009429931640,36.3796997070312500,214.6253967285156200,290.3517150878906000,17.0408096313476560,32.0683212280273440,16,3,50,89,62,15410
1342515618,8891,402.2200012207031000,17.1168994903564450,36.3954010009765600,215.6846008300781200,287.6561889648437500,17.1236000061035160,31.9732093811035160,16,3,50,88,62,15408
